Regional Weather Roundup
Issued by NWS

Home | Current Version | Previous Version | Text Only | Print | Product List | Glossary On
Versions: 1 2 3 4 5 6 7 8 9 10 11 12 13 14 15 16 17 18 19 20 21 22 23 24 25 26 27 28 29 30 31 32 33 34 35 36 37 38 39 40 41 42 43 44 45 46 47 48 49 50
000
ASUS43 KLMK 220602
RWRKY
KENTUCKY REGIONAL WEATHER ROUNDUP
NATIONAL WEATHER SERVICE LOUISVILLE KY
100 AM EST WED NOV 22 2017

NOTE "FAIR" INDICATES FEW OR NO CLOUDS BELOW 12,000 FEET
WITH NO SIGNIFICANT WEATHER AND/OR OBSTRUCTIONS TO VISIBILITY.

KYZ001>023-026-027-061>063-070>075-220700-
WESTERN AND SOUTH CENTRAL KENTUCKY

CITY           SKY/WX    TMP DP  RH WIND       PRES   REMARKS
PADUCAH        CLEAR     37  25  61 N13       30.23R WCI  29
HENDERSON      CLEAR     34  23  64 NW9       30.25R WCI  27
OWENSBORO      CLEAR     35  24  64 N12       30.22R WCI  27
HOPKINSVILLE   CLEAR     41  29  62 NW12G20   30.17R
BOWLING GREEN  CLEAR     45  35  68 NW6       30.14R
GLASGOW        NOT AVBL
$$

KYZ024-025-028>034-038-045-046-053-220700-
NORTH CENTRAL KENTUCKY

CITY           SKY/WX    TMP DP  RH WIND       PRES   REMARKS
LOUISVILLE/SDF CLOUDY    42  31  64 N18       30.15R
LOUISVILLE/LOU CLOUDY    40  31  70 N10G24    30.15R WCI  33
FORT KNOX      PTCLDY    39  30  70 NW13      30.12S WCI  32
$$

KYZ035>037-039>044-047>052-055>060-089>105-220700-
NORTHEAST KENTUCKY

CITY           SKY/WX    TMP DP  RH WIND       PRES   REMARKS
LEXINGTON      CLOUDY    44  35  70 NW17G31   30.09R
COVINGTON      CLOUDY    36  33  89 NW12      30.12R WCI  28
FRANKFORT      CLOUDY    42  33  70 NW14G24   30.11R
$$

KYZ054-064>069-076>088-106>120-220700-
SOUTHEAST KENTUCKY

CITY           SKY/WX    TMP DP  RH WIND       PRES   REMARKS
JACKSON        CLEAR     47  28  47 SW3       30.04S
LONDON         CLOUDY    42  31  64 CALM      30.06S
SOMERSET       NOT AVBL
MIDDLESBORO    CLEAR     46  36  68 CALM      30.06S
MONTICELLO     CLEAR     32  29  88 W8        30.10S WCI  25
$$




USA.gov is the U.S. government's official web portal to all federal, state and local government web resources and services.